Caribou, ME

10:56 PM EST on February 25, 2018 (GMT -0500)
Caribou Municipal

Weather History for KCAR - March, 2013

Change the Weather History Date:

Wednesday, March 27, 2013

  Actual Average Record
Temperature  
Mean Temperature 38 °F 29 °F  
Max Temperature 43 °F 38 °F 66 °F (1993)
Min Temperature 33 °F 20 °F -2 °F (1990)
Degree Days  
Heating Degree Days 27 36  
Month to date heating degree days 974 1115  
Since 1 July heating degree days 7122 7836  
Cooling Degree Days 0 0  
Month to date cooling degree days 0 0  
Year to date cooling degree days 0 0  
Moisture  
Dew Point 31 °F    
Average Humidity 79    
Maximum Humidity 96    
Minimum Humidity 62    
Precipitation  
Precipitation 0.11 in 0.09 in 0.99 in (1978)
Month to date precipitation 1.74 2.19  
Year to date precipitation 7.11 7.11  
Snow  
Snow 0.80 in 0.50 in 7.70 in (2002)
Month to date snowfall 15.2 16.6  
Since 1 July snowfall 102.6 99.1  
Snow Depth 7.00 in    
Sea Level Pressure  
Sea Level Pressure 29.71 in    
Wind  
Wind Speed 8 mph (North)    
Max Wind Speed 17 mph    
Max Gust Speed 23 mph    
Visibility 7 miles    
Events Rain , Snow    
T = Trace of Precipitation, MM = Missing Value Source: NWS Daily Summary

Daily Weather History Graph

Daily Weather History Graph

Search for Another Location

Airport or City:

Trip Planner

Search our weather history database for the weather conditions in past years. The results will help you decide how hot, cold, wet, or windy it might be!

Date:

Astronomy

Mar. 27, 2013 Rise Set
Actual Time 6:20 AM EDT 6:54 PM EDT
Civil Twilight 5:50 AM EDT 7:25 PM EDT
Nautical Twilight 5:14 AM EDT 8:01 PM EDT
Astronomical Twilight 4:36 AM EDT 8:39 PM EDT
Moon 7:39 PM EDT (3/27) 6:06 AM EDT (3/27)
Length of Visible Light 13h 35m
Length of Day
12h 33m
Full, 100% of the Moon is Illuminated
Mar 27
Full
Apr 3
Last Quarter
Apr 10
New
Apr 18
First Quarter
Apr 25
Full

Hourly Weather History & Observations

Time (EDT) Temp. Windchill Dew Point Humidity Pressure Visibility Wind Dir Wind Speed Gust Speed Precip Events Conditions
12:19 AM 33.8 °F 25.8 °F 30.2 °F 87% 29.61 in 2.5 mi NNW 10.4 mph - 0.00 in Snow Light Snow
12:37 AM 33.8 °F 25.8 °F 30.2 °F 87% 29.61 in 2.5 mi NNW 10.4 mph - 0.00 in Snow Light Snow
12:47 AM 33.8 °F 26.4 °F 30.2 °F 87% 29.61 in 3.0 mi NNW 9.2 mph - 0.00 in Snow Light Snow
12:54 AM 33.1 °F 24.4 °F 30.9 °F 92% 29.64 in 4.0 mi NNW 11.5 mph - 0.00 in Snow Light Snow
1:30 AM 33.8 °F 26.4 °F 30.2 °F 87% 29.61 in 2.5 mi NNW 9.2 mph - 0.00 in Snow Light Snow
1:54 AM 33.1 °F 25.5 °F 30.9 °F 92% 29.64 in 2.0 mi NNW 9.2 mph - 0.01 in Snow Light Snow
2:11 AM 33.8 °F 27.0 °F 30.2 °F 87% 29.61 in 1.8 mi NNW 8.1 mph - 0.01 in Snow Light Snow
2:18 AM 33.8 °F 27.0 °F 30.2 °F 87% 29.61 in 2.5 mi North 8.1 mph - 0.01 in Snow Light Snow
2:25 AM 33.8 °F 27.7 °F 30.2 °F 87% 29.61 in 3.0 mi NNW 6.9 mph - 0.01 in Snow Light Snow
2:44 AM 33.8 °F 27.0 °F 30.2 °F 87% 29.61 in 2.5 mi NNW 8.1 mph - 0.01 in Snow Light Snow
2:49 AM 33.8 °F 27.0 °F 30.2 °F 87% 29.61 in 3.0 mi NNW 8.1 mph - 0.01 in Snow Light Snow
2:54 AM 33.1 °F 26.1 °F 30.9 °F 92% 29.65 in 3.0 mi North 8.1 mph - 0.01 in Snow Light Snow
2:58 AM 33.8 °F 27.0 °F 30.2 °F 87% 29.62 in 2.5 mi North 8.1 mph - 0.01 in Snow Light Snow
3:18 AM 33.8 °F 27.0 °F 30.2 °F 87% 29.62 in 3.0 mi North 8.1 mph - 0.01 in Snow Light Snow
3:33 AM 33.8 °F 27.0 °F 30.2 °F 87% 29.62 in 2.5 mi North 8.1 mph - 0.02 in Snow Light Snow
3:54 AM 33.1 °F 26.1 °F 30.9 °F 92% 29.65 in 2.5 mi North 8.1 mph - 0.02 in Snow Light Snow
4:49 AM 33.8 °F 27.7 °F 32.0 °F 93% 29.63 in 4.0 mi North 6.9 mph - 0.02 in Snow Light Snow
4:54 AM 33.1 °F 27.7 °F 32.0 °F 96% 29.66 in 5.0 mi North 5.8 mph - 0.02 in Snow Light Snow
5:26 AM 33.8 °F 27.0 °F 32.0 °F 93% 29.63 in 4.0 mi North 8.1 mph - 0.01 in Snow Light Snow
5:46 AM 33.8 °F 27.0 °F 32.0 °F 93% 29.64 in 6.0 mi North 8.1 mph - 0.02 in Snow Light Snow
5:54 AM 34.0 °F 27.2 °F 32.0 °F 92% 29.67 in 7.0 mi North 8.1 mph - 0.02 in Snow Light Snow
6:51 AM 33.8 °F 26.4 °F 32.0 °F 93% 29.66 in 7.0 mi North 9.2 mph - 0.01 in Rain Light Rain
6:54 AM 34.0 °F 26.6 °F 32.0 °F 92% 29.69 in 8.0 mi North 9.2 mph - 0.01 in Rain Light Rain
7:12 AM 33.8 °F 26.4 °F 32.0 °F 93% 29.66 in 10.0 mi North 9.2 mph - 0.00 in Rain Light Rain
7:54 AM 35.1 °F 26.9 °F 32.0 °F 89% 29.70 in 10.0 mi North 11.5 mph - 0.01 in Rain Light Rain
8:08 AM 35.6 °F 27.5 °F 32.0 °F 87% 29.68 in 10.0 mi North 11.5 mph - 0.00 in Rain Light Rain
8:44 AM 35.6 °F 26.6 °F 33.8 °F 93% 29.68 in 10.0 mi North 13.8 mph - 0.00 in   Overcast
8:54 AM 36.0 °F 27.1 °F 33.1 °F 89% 29.72 in 10.0 mi North 13.8 mph - 0.00 in Rain Light Rain
9:28 AM 35.6 °F 27.1 °F 33.8 °F 93% 29.70 in 10.0 mi NNE 12.7 mph - 0.01 in Rain Light Rain
9:54 AM 36.0 °F 28.5 °F 33.1 °F 89% 29.73 in 10.0 mi North 10.4 mph - 0.01 in Rain Light Rain
10:01 AM 35.6 °F 27.1 °F 33.8 °F 93% 29.71 in 10.0 mi NNE 12.7 mph - 0.00 in   Overcast
10:30 AM 37.4 °F 32.1 °F 33.8 °F 87% 29.71 in 10.0 mi NNE 6.9 mph - 0.00 in   Overcast
10:54 AM 39.0 °F 31.4 °F 33.1 °F 79% 29.75 in 10.0 mi NE 12.7 mph 17.3 mph 0.00 in   Overcast
11:05 AM 39.2 °F 32.5 °F 33.8 °F 81% 29.72 in 10.0 mi NE 10.4 mph 17.3 mph N/A   Overcast
11:54 AM 39.0 °F 32.3 °F 32.0 °F 76% 29.76 in 10.0 mi NE 10.4 mph - 0.00 in Rain Light Rain
12:12 PM 37.4 °F 29.3 °F 33.8 °F 87% 29.74 in 10.0 mi NE 12.7 mph - 0.00 in Rain Light Rain
12:34 PM 39.2 °F 32.5 °F 33.8 °F 81% 29.74 in 10.0 mi NE 10.4 mph - 0.00 in   Mostly Cloudy
12:54 PM 39.9 °F 32.1 °F 32.0 °F 73% 29.77 in 10.0 mi NE 13.8 mph - 0.00 in   Overcast
1:08 PM 39.2 °F 32.5 °F 33.8 °F 81% 29.75 in 10.0 mi NE 10.4 mph - 0.00 in Rain Light Rain
1:54 PM 39.9 °F 32.5 °F 30.9 °F 70% 29.78 in 10.0 mi ENE 12.7 mph 18.4 mph 0.00 in   Mostly Cloudy
2:54 PM 42.1 °F 35.2 °F 30.0 °F 62% 29.79 in 10.0 mi ENE 12.7 mph 18.4 mph N/A   Partly Cloudy
3:54 PM 42.1 °F 36.6 °F 30.0 °F 62% 29.79 in 10.0 mi NNE 9.2 mph - N/A   Mostly Cloudy
4:54 PM 42.1 °F 37.7 °F 30.0 °F 62% 29.80 in 10.0 mi NE 6.9 mph - 0.00 in   Overcast
5:54 PM 42.1 °F 39.2 °F 30.0 °F 62% 29.81 in 10.0 mi NE 4.6 mph - N/A   Overcast
6:54 PM 41.0 °F - 30.0 °F 65% 29.83 in 10.0 mi Calm Calm - N/A   Overcast
7:54 PM 39.9 °F 37.8 °F 30.0 °F 68% 29.85 in 10.0 mi NE 3.5 mph - N/A   Overcast
8:54 PM 39.0 °F - 28.9 °F 67% 29.87 in 10.0 mi Calm Calm - N/A   Overcast
9:54 PM 37.9 °F 35.5 °F 28.9 °F 70% 29.88 in 10.0 mi NNE 3.5 mph - N/A   Overcast
10:54 PM 37.0 °F 33.3 °F 28.9 °F 73% 29.88 in 10.0 mi North 4.6 mph - N/A   Overcast
11:54 PM 37.0 °F 33.3 °F 28.9 °F 73% 29.88 in 10.0 mi North 4.6 mph - N/A   Overcast